Time,TemperatureF,DewpointF,PressureIn,WindDirection,WindDirectionDegrees,WindSpeedMPH,WindSpeedGustMPH,Humidity,HourlyPrecipIn,Conditions,Clouds,dailyrainin,SoftwareType,DateUTC
2013-06-28 00:06:00,74.6,71.8,29.86,SE,132,0.0,0.0,91,0.00,,---,0.00,VWS V14.01,2013-06-28 05:06:00,
2013-06-28 00:11:00,74.6,71.8,29.86,SE,132,0.0,0.0,91,0.00,,---,0.00,VWS V14.01,2013-06-28 05:11:00,
2013-06-28 00:16:00,74.6,71.8,29.86,SE,132,0.0,0.0,91,0.00,,---,0.00,VWS V14.01,2013-06-28 05:16:00,
2013-06-28 00:21:00,74.2,71.4,29.86,SE,132,0.0,0.0,91,0.00,,---,0.00,VWS V14.01,2013-06-28 05:21:00,
2013-06-28 00:26:00,74.0,71.2,29.86,SE,132,0.0,0.0,91,0.00,,---,0.00,VWS V14.01,2013-06-28 05:26:00,
2013-06-28 00:31:00,73.9,71.1,29.86,SE,132,0.0,0.0,91,0.00,,---,0.00,VWS V14.01,2013-06-28 05:31:00,
2013-06-28 00:37:00,73.7,70.9,29.86,SE,132,0.0,0.0,91,0.00,,---,0.00,VWS V14.01,2013-06-28 05:37:00,
2013-06-28 00:42:00,73.7,70.9,29.86,SE,132,0.0,0.0,91,0.00,,---,0.00,VWS V14.01,2013-06-28 05:42:00,
2013-06-28 00:47:00,73.5,70.7,29.85,SE,132,0.0,0.0,91,0.00,,---,0.00,VWS V14.01,2013-06-28 05:47:00,
2013-06-28 06:10:00,74.2,70.1,29.83,SE,135,1.0,2.0,87,0.00,,---,0.00,VWS V14.01,2013-06-28 11:10:00,
2013-06-28 07:09:00,76.8,69.8,29.84,South,191,1.0,1.0,79,0.00,,---,0.00,VWS V14.01,2013-06-28 12:09:00,
2013-06-28 07:14:00,76.8,70.2,29.85,West,279,2.0,6.0,80,0.00,,---,0.00,VWS V14.01,2013-06-28 12:14:00,
2013-06-28 07:19:00,77.2,70.2,29.84,West,279,0.0,6.0,79,0.00,,---,0.00,VWS V14.01,2013-06-28 12:19:00,
2013-06-28 07:24:00,77.4,70.4,29.85,West,279,2.0,3.0,79,0.00,,---,0.00,VWS V14.01,2013-06-28 12:24:00,
2013-06-28 07:29:00,77.6,70.2,29.85,West,270,0.0,3.0,78,0.00,,---,0.00,VWS V14.01,2013-06-28 12:29:00,
2013-06-28 07:34:00,77.7,71.0,29.85,West,270,0.0,0.0,80,0.00,,---,0.00,VWS V14.01,2013-06-28 12:34:00,
2013-06-28 07:39:00,77.9,71.2,29.84,West,270,0.0,2.0,80,0.00,,---,0.00,VWS V14.01,2013-06-28 12:39:00,
2013-06-28 07:44:00,78.1,71.4,29.84,West,270,2.0,2.0,80,0.00,,---,0.00,VWS V14.01,2013-06-28 12:44:00,
2013-06-28 07:49:00,78.3,71.3,29.84,West,266,1.0,2.0,79,0.00,,---,0.00,VWS V14.01,2013-06-28 12:49:00,
2013-06-28 07:54:00,78.5,71.1,29.84,South,187,2.0,3.0,78,0.00,,---,0.00,VWS V14.01,2013-06-28 12:54:00,
2013-06-28 07:59:00,78.6,71.2,29.84,South,171,2.0,3.0,78,0.00,,---,0.00,VWS V14.01,2013-06-28 12:59:00,
2013-06-28 08:04:00,79.2,71.8,29.85,SSW,200,3.0,3.0,78,0.00,,---,0.00,VWS V14.01,2013-06-28 13:04:00,
2013-06-28 08:09:00,79.4,71.9,29.85,South,173,2.0,2.0,78,0.00,,---,0.00,VWS V14.01,2013-06-28 13:09:00,
2013-06-28 08:14:00,79.4,70.8,29.85,SE,138,1.0,2.0,75,0.00,,---,0.00,VWS V14.01,2013-06-28 13:14:00,
2013-06-28 08:19:00,80.1,71.5,29.85,South,187,3.0,5.0,75,0.00,,---,0.00,VWS V14.01,2013-06-28 13:19:00,
2013-06-28 08:24:00,80.1,71.5,29.85,South,190,3.0,3.0,75,0.00,,---,0.00,VWS V14.01,2013-06-28 13:24:00,
2013-06-28 08:29:00,80.9,72.2,29.85,South,188,1.0,3.0,75,0.00,,---,0.00,VWS V14.01,2013-06-28 13:29:00,
2013-06-28 08:34:00,80.9,72.2,29.85,South,184,1.0,1.0,75,0.00,,---,0.00,VWS V14.01,2013-06-28 13:34:00,
2013-06-28 08:39:00,81.2,72.5,29.85,West,270,3.0,6.0,75,0.00,,---,0.00,VWS V14.01,2013-06-28 13:39:00,
2013-06-28 08:44:00,81.1,72.4,29.85,West,273,2.0,7.0,75,0.00,,---,0.00,VWS V14.01,2013-06-28 13:44:00,
2013-06-28 08:49:00,80.9,71.4,29.85,SSW,201,6.0,8.0,73,0.00,,---,0.00,VWS V14.01,2013-06-28 13:49:00,
2013-06-28 08:54:00,80.7,71.2,29.85,West,260,2.0,6.0,73,0.00,,---,0.00,VWS V14.01,2013-06-28 13:54:00,
2013-06-28 08:59:00,80.7,71.2,29.84,SSW,198,1.0,6.0,73,0.00,,---,0.00,VWS V14.01,2013-06-28 13:59:00,
2013-06-28 09:04:00,80.7,71.2,29.84,SSW,208,2.0,5.0,73,0.00,,---,0.00,VWS V14.01,2013-06-28 14:04:00,
2013-06-28 09:09:00,80.7,71.2,29.84,SSE,164,1.0,5.0,73,0.00,,---,0.00,VWS V14.01,2013-06-28 14:09:00,
2013-06-28 09:14:00,80.7,71.2,29.83,SSE,162,7.0,8.0,73,0.00,,---,0.00,VWS V14.01,2013-06-28 14:14:00,
2013-06-28 09:19:00,80.7,70.8,29.83,South,188,5.0,8.0,72,0.00,,---,0.00,VWS V14.01,2013-06-28 14:19:00,
2013-06-28 09:24:00,80.9,71.0,29.83,SSW,197,3.0,5.0,72,0.00,,---,0.00,VWS V14.01,2013-06-28 14:24:00,
2013-06-28 09:29:00,81.1,71.6,29.83,SSE,152,5.0,6.0,73,0.00,,---,0.00,VWS V14.01,2013-06-28 14:29:00,
2013-06-28 09:34:00,81.1,71.2,29.83,SSW,211,2.0,6.0,72,0.00,,---,0.00,VWS V14.01,2013-06-28 14:34:00,
2013-06-28 09:39:00,81.4,71.5,29.83,SSW,195,5.0,6.0,72,0.00,,---,0.00,VWS V14.01,2013-06-28 14:39:00,
2013-06-28 09:44:00,81.6,71.7,29.83,South,173,1.0,6.0,72,0.00,,---,0.00,VWS V14.01,2013-06-28 14:44:00,
2013-06-28 09:49:00,82.0,72.9,29.83,South,187,1.0,6.0,74,0.00,,---,0.00,VWS V14.01,2013-06-28 14:49:00,
2013-06-28 09:54:00,83.0,73.9,29.83,SSW,212,1.0,3.0,74,0.00,,---,0.00,VWS V14.01,2013-06-28 14:54:00,
2013-06-28 09:59:00,84.0,73.6,29.83,SSW,208,1.0,3.0,71,0.00,,---,0.00,VWS V14.01,2013-06-28 14:59:00,
2013-06-28 10:04:00,84.1,73.7,29.83,SE,135,1.0,3.0,71,0.00,,---,0.00,VWS V14.01,2013-06-28 15:04:00,
2013-06-28 10:09:00,85.3,74.8,29.83,West,275,1.0,6.0,71,0.00,,---,0.00,VWS V14.01,2013-06-28 15:09:00,
2013-06-28 10:14:00,85.7,75.2,29.82,West,279,3.0,7.0,71,0.00,,---,0.00,VWS V14.01,2013-06-28 15:14:00,
2013-06-28 10:19:00,85.9,75.4,29.82,SSW,195,5.0,7.0,71,0.00,,---,0.00,VWS V14.01,2013-06-28 15:19:00,
2013-06-28 10:24:00,86.7,76.2,29.82,WNW,284,2.0,8.0,71,0.00,,---,0.00,VWS V14.01,2013-06-28 15:24:00,
2013-06-28 10:29:00,87.2,73.6,29.82,West,270,1.0,8.0,64,0.00,,---,0.00,VWS V14.01,2013-06-28 15:29:00,
2013-06-28 10:34:00,87.4,74.2,29.82,South,188,1.0,7.0,65,0.00,,---,0.00,VWS V14.01,2013-06-28 15:34:00,
2013-06-28 10:39:00,87.6,73.0,29.81,SSW,207,1.0,7.0,62,0.00,,---,0.00,VWS V14.01,2013-06-28 15:39:00,
2013-06-28 10:44:00,88.4,73.7,29.81,SW,221,3.0,7.0,62,0.00,,---,0.00,VWS V14.01,2013-06-28 15:44:00,
2013-06-28 10:49:00,88.6,72.9,29.81,WNW,283,7.0,7.0,60,0.00,,---,0.00,VWS V14.01,2013-06-28 15:49:00,
2013-06-28 10:54:00,88.8,72.6,29.81,West,266,5.0,5.0,59,0.00,,---,0.00,VWS V14.01,2013-06-28 15:54:00,
2013-06-28 10:59:00,89.0,74.3,29.81,West,267,5.0,7.0,62,0.00,,---,0.00,VWS V14.01,2013-06-28 15:59:00,
2013-06-28 11:04:00,89.0,74.3,29.81,West,275,2.0,5.0,62,0.00,,---,0.00,VWS V14.01,2013-06-28 16:04:00,
2013-06-28 11:09:00,89.9,75.1,29.81,South,181,5.0,6.0,62,0.00,,---,0.00,VWS V14.01,2013-06-28 16:09:00,
2013-06-28 11:14:00,90.1,75.8,29.81,West,277,6.0,7.0,63,0.00,,---,0.00,VWS V14.01,2013-06-28 16:14:00,
2013-06-28 11:19:00,90.3,76.0,29.81,West,265,7.0,8.0,63,0.00,,---,0.00,VWS V14.01,2013-06-28 16:19:00,
2013-06-28 11:24:00,90.3,76.0,29.81,West,269,3.0,3.0,63,0.00,,---,0.00,VWS V14.01,2013-06-28 16:24:00,
2013-06-28 11:29:00,91.0,76.7,29.81,SSW,200,1.0,5.0,63,0.00,,---,0.00,VWS V14.01,2013-06-28 16:29:00,
2013-06-28 11:34:00,91.2,76.8,29.81,SSW,200,6.0,14.0,63,0.00,,---,0.00,VWS V14.01,2013-06-28 16:34:00,
2013-06-28 11:39:00,91.2,73.3,29.81,West,277,1.0,14.0,56,0.00,,---,0.00,VWS V14.01,2013-06-28 16:39:00,
2013-06-28 11:44:00,91.4,73.5,29.80,SSW,210,2.0,11.0,56,0.00,,---,0.00,VWS V14.01,2013-06-28 16:44:00,
2013-06-28 11:49:00,91.4,73.5,29.80,NW,321,3.0,11.0,56,0.00,,---,0.00,VWS V14.01,2013-06-28 16:49:00,
2013-06-28 11:54:00,91.8,73.9,29.80,WNW,290,2.0,8.0,56,0.00,,---,0.00,VWS V14.01,2013-06-28 16:54:00,
2013-06-28 11:59:00,91.8,73.9,29.80,WSW,256,10.0,10.0,56,0.00,,---,0.00,VWS V14.01,2013-06-28 16:59:00,
2013-06-28 12:04:00,91.8,73.9,29.80,WNW,293,3.0,5.0,56,0.00,,---,0.00,VWS V14.01,2013-06-28 17:04:00,
2013-06-28 12:09:00,92.1,74.2,29.80,WNW,296,6.0,8.0,56,0.00,,---,0.00,VWS V14.01,2013-06-28 17:09:00,
2013-06-28 12:14:00,92.3,74.9,29.80,WNW,303,5.0,5.0,57,0.00,,---,0.00,VWS V14.01,2013-06-28 17:14:00,
2013-06-28 12:19:00,92.3,74.9,29.80,West,272,2.0,11.0,57,0.00,,---,0.00,VWS V14.01,2013-06-28 17:19:00,
2013-06-28 12:24:00,92.3,75.4,29.80,WNW,287,5.0,6.0,58,0.00,,---,0.00,VWS V14.01,2013-06-28 17:24:00,
2013-06-28 12:29:00,92.3,75.4,29.80,West,266,7.0,7.0,58,0.00,,---,0.00,VWS V14.01,2013-06-28 17:29:00,
2013-06-28 12:34:00,92.9,75.9,29.80,West,272,5.0,7.0,58,0.00,,---,0.00,VWS V14.01,2013-06-28 17:34:00,
2013-06-28 12:39:00,93.4,76.4,29.80,West,277,5.0,7.0,58,0.00,,---,0.00,VWS V14.01,2013-06-28 17:39:00,
2013-06-28 12:44:00,93.6,76.6,29.79,SSE,149,2.0,7.0,58,0.00,,---,0.00,VWS V14.01,2013-06-28 17:44:00,
2013-06-28 12:49:00,94.0,77.0,29.79,West,276,3.0,7.0,58,0.00,,---,0.00,VWS V14.01,2013-06-28 17:49:00,
2013-06-28 12:54:00,93.8,76.8,29.79,WNW,291,2.0,10.0,58,0.00,,---,0.00,VWS V14.01,2013-06-28 17:54:00,
2013-06-28 12:59:00,93.8,76.8,29.79,WNW,290,6.0,12.0,58,0.00,,---,0.00,VWS V14.01,2013-06-28 17:59:00,
2013-06-28 13:04:00,93.6,76.6,29.79,WNW,286,2.0,7.0,58,0.00,,---,0.00,VWS V14.01,2013-06-28 18:04:00,
2013-06-28 13:09:00,93.6,76.6,29.79,WSW,255,5.0,14.0,58,0.00,,---,0.00,VWS V14.01,2013-06-28 18:09:00,
2013-06-28 13:14:00,93.8,76.8,29.79,WNW,291,8.0,8.0,58,0.00,,---,0.00,VWS V14.01,2013-06-28 18:14:00,
2013-06-28 13:19:00,94.0,77.0,29.79,West,272,2.0,10.0,58,0.00,,---,0.00,VWS V14.01,2013-06-28 18:19:00,
2013-06-28 13:24:00,94.3,75.7,29.79,West,280,7.0,11.0,55,0.00,,---,0.00,VWS V14.01,2013-06-28 18:24:00,
2013-06-28 13:29:00,94.3,75.7,29.79,West,262,3.0,14.0,55,0.00,,---,0.00,VWS V14.01,2013-06-28 18:29:00,
2013-06-28 13:34:00,94.5,75.3,29.79,WSW,258,3.0,3.0,54,0.00,,---,0.00,VWS V14.01,2013-06-28 18:34:00,
2013-06-28 13:39:00,94.7,75.5,29.78,West,269,5.0,12.0,54,0.00,,---,0.00,VWS V14.01,2013-06-28 18:39:00,
2013-06-28 13:44:00,94.9,76.2,29.78,NW,307,3.0,6.0,55,0.00,,---,0.00,VWS V14.01,2013-06-28 18:44:00,
2013-06-28 13:49:00,94.7,73.8,29.78,WNW,291,6.0,7.0,51,0.00,,---,0.00,VWS V14.01,2013-06-28 18:49:00,
2013-06-28 13:54:00,94.7,73.8,29.78,West,276,12.0,12.0,51,0.00,,---,0.00,VWS V14.01,2013-06-28 18:54:00,
2013-06-28 13:59:00,94.7,73.8,29.78,WNW,290,3.0,12.0,51,0.00,,---,0.00,VWS V14.01,2013-06-28 18:59:00,
2013-06-28 14:04:00,94.9,74.5,29.78,WNW,284,8.0,8.0,52,0.00,,---,0.00,VWS V14.01,2013-06-28 19:04:00,
2013-06-28 14:09:00,94.9,73.9,29.78,WSW,258,2.0,8.0,51,0.00,,---,0.00,VWS V14.01,2013-06-28 19:09:00,
2013-06-28 14:14:00,95.1,74.1,29.77,West,275,3.0,10.0,51,0.00,,---,0.00,VWS V14.01,2013-06-28 19:14:00,
2013-06-28 14:19:00,95.1,74.1,29.77,WSW,258,6.0,11.0,51,0.00,,---,0.00,VWS V14.01,2013-06-28 19:19:00,
2013-06-28 14:24:00,95.4,75.6,29.77,WNW,282,2.0,6.0,53,0.00,,---,0.00,VWS V14.01,2013-06-28 19:24:00,
2013-06-28 14:29:00,95.4,75.6,29.77,West,269,8.0,11.0,53,0.00,,---,0.00,VWS V14.01,2013-06-28 19:29:00,
2013-06-28 14:34:00,95.6,74.6,29.77,WNW,282,8.0,8.0,51,0.00,,---,0.00,VWS V14.01,2013-06-28 19:34:00,
2013-06-28 14:39:00,95.9,73.1,29.77,West,259,8.0,8.0,48,0.00,,---,0.00,VWS V14.01,2013-06-28 19:39:00,
2013-06-28 14:44:00,95.9,73.1,29.76,West,277,5.0,8.0,48,0.00,,---,0.00,VWS V14.01,2013-06-28 19:44:00,
2013-06-28 14:49:00,96.1,75.6,29.76,ENE,66,1.0,8.0,52,0.00,,---,0.00,VWS V14.01,2013-06-28 19:49:00,
2013-06-28 14:54:00,96.6,76.1,29.77,ESE,108,3.0,7.0,52,0.00,,---,0.00,VWS V14.01,2013-06-28 19:54:00,
2013-06-28 14:59:00,96.6,76.1,29.76,NNE,19,0.0,7.0,52,0.00,,---,0.00,VWS V14.01,2013-06-28 19:59:00,
2013-06-28 15:04:00,97.1,76.6,29.76,WNW,289,1.0,6.0,52,0.00,,---,0.00,VWS V14.01,2013-06-28 20:04:00,
2013-06-28 15:09:00,97.3,76.7,29.76,NW,308,2.0,6.0,52,0.00,,---,0.00,VWS V14.01,2013-06-28 20:09:00,
2013-06-28 15:14:00,97.5,76.9,29.75,West,273,7.0,7.0,52,0.00,,---,0.00,VWS V14.01,2013-06-28 20:14:00,
2013-06-28 15:19:00,97.5,76.9,29.75,West,265,5.0,7.0,52,0.00,,---,0.00,VWS V14.01,2013-06-28 20:19:00,
2013-06-28 15:24:00,97.1,76.6,29.76,East,95,6.0,6.0,52,0.00,,---,0.00,VWS V14.01,2013-06-28 20:24:00,
2013-06-28 15:29:00,96.8,73.9,29.76,WNW,293,2.0,8.0,48,0.00,,---,0.00,VWS V14.01,2013-06-28 20:29:00,
2013-06-28 15:34:00,96.8,72.0,29.75,West,267,7.0,11.0,45,0.00,,---,0.00,VWS V14.01,2013-06-28 20:34:00,
2013-06-28 15:39:00,96.8,72.6,29.75,West,276,3.0,11.0,46,0.00,,---,0.00,VWS V14.01,2013-06-28 20:39:00,
2013-06-28 15:44:00,96.8,72.6,29.75,West,276,2.0,6.0,46,0.00,,---,0.00,VWS V14.01,2013-06-28 20:44:00,
2013-06-28 15:49:00,96.8,72.6,29.75,NW,308,5.0,10.0,46,0.00,,---,0.00,VWS V14.01,2013-06-28 20:49:00,
2013-06-28 15:54:00,96.6,69.8,29.75,West,277,1.0,7.0,42,0.00,,---,0.00,VWS V14.01,2013-06-28 20:54:00,
2013-06-28 15:59:00,96.8,69.9,29.75,NNE,16,1.0,7.0,42,0.00,,---,0.00,VWS V14.01,2013-06-28 20:59:00,
2013-06-28 16:04:00,96.8,69.9,29.75,WSW,253,6.0,6.0,42,0.00,,---,0.00,VWS V14.01,2013-06-28 21:04:00,
2013-06-28 16:09:00,97.3,70.4,29.75,SE,136,2.0,7.0,42,0.00,,---,0.00,VWS V14.01,2013-06-28 21:09:00,
2013-06-28 16:14:00,97.3,70.4,29.75,NNE,25,1.0,11.0,42,0.00,,---,0.00,VWS V14.01,2013-06-28 21:14:00,
2013-06-28 16:19:00,97.1,72.9,29.75,NNE,33,7.0,11.0,46,0.00,,---,0.00,VWS V14.01,2013-06-28 21:19:00,
2013-06-28 16:24:00,97.1,72.9,29.75,WNW,299,2.0,6.0,46,0.00,,---,0.00,VWS V14.01,2013-06-28 21:24:00,
2013-06-28 16:29:00,97.3,73.1,29.75,NNE,32,6.0,7.0,46,0.00,,---,0.00,VWS V14.01,2013-06-28 21:29:00,
2013-06-28 16:34:00,97.3,69.7,29.75,ENE,61,1.0,6.0,41,0.00,,---,0.00,VWS V14.01,2013-06-28 21:34:00,
2013-06-28 16:39:00,97.5,69.9,29.75,WNW,286,1.0,6.0,41,0.00,,---,0.00,VWS V14.01,2013-06-28 21:39:00,
2013-06-28 16:44:00,97.1,69.5,29.75,NNE,15,3.0,10.0,41,0.00,,---,0.00,VWS V14.01,2013-06-28 21:44:00,
2013-06-28 16:49:00,96.6,71.1,29.75,NE,43,5.0,10.0,44,0.00,,---,0.00,VWS V14.01,2013-06-28 21:49:00,
2013-06-28 16:54:00,96.6,71.1,29.75,West,270,3.0,7.0,44,0.00,,---,0.00,VWS V14.01,2013-06-28 21:54:00,
2013-06-28 16:59:00,96.6,73.1,29.74,North,352,2.0,7.0,47,0.00,,---,0.00,VWS V14.01,2013-06-28 21:59:00,
2013-06-28 17:04:00,96.6,73.1,29.74,NNE,12,1.0,6.0,47,0.00,,---,0.00,VWS V14.01,2013-06-28 22:04:00,
2013-06-28 17:09:00,96.6,69.1,29.74,WSW,253,3.0,10.0,41,0.00,,---,0.00,VWS V14.01,2013-06-28 22:09:00,
2013-06-28 17:14:00,96.6,69.8,29.74,NW,308,3.0,7.0,42,0.00,,---,0.00,VWS V14.01,2013-06-28 22:14:00,
2013-06-28 17:19:00,96.3,69.5,29.74,WNW,291,3.0,7.0,42,0.00,,---,0.00,VWS V14.01,2013-06-28 22:19:00,
2013-06-28 17:24:00,96.3,69.5,29.74,WSW,243,3.0,3.0,42,0.00,,---,0.00,VWS V14.01,2013-06-28 22:24:00,
2013-06-28 17:29:00,96.1,72.0,29.74,NE,39,1.0,6.0,46,0.00,,---,0.00,VWS V14.01,2013-06-28 22:29:00,
2013-06-28 17:34:00,96.3,72.2,29.74,ESE,116,2.0,6.0,46,0.00,,---,0.00,VWS V14.01,2013-06-28 22:34:00,
2013-06-28 17:39:00,96.1,72.0,29.74,ENE,64,1.0,7.0,46,0.00,,---,0.00,VWS V14.01,2013-06-28 22:39:00,
2013-06-28 17:44:00,95.9,70.5,29.74,SE,136,2.0,3.0,44,0.00,,---,0.00,VWS V14.01,2013-06-28 22:44:00,
2013-06-28 17:49:00,95.6,68.2,29.74,East,80,1.0,5.0,41,0.00,,---,0.00,VWS V14.01,2013-06-28 22:49:00,
2013-06-28 17:54:00,95.6,69.6,29.73,WNW,291,2.0,3.0,43,0.00,,---,0.00,VWS V14.01,2013-06-28 22:54:00,
2013-06-28 17:59:00,95.4,68.0,29.74,NNE,27,1.0,3.0,41,0.00,,---,0.00,VWS V14.01,2013-06-28 22:59:00,
2013-06-28 18:04:00,95.4,69.4,29.73,NNE,26,2.0,6.0,43,0.00,,---,0.00,VWS V14.01,2013-06-28 23:04:00,
2013-06-28 18:09:00,95.1,67.0,29.73,West,279,2.0,10.0,40,0.00,,---,0.00,VWS V14.01,2013-06-28 23:09:00,
2013-06-28 18:14:00,94.9,69.6,29.73,NNW,347,2.0,6.0,44,0.00,,---,0.00,VWS V14.01,2013-06-28 23:14:00,
2013-06-28 18:19:00,94.7,69.4,29.73,NE,37,1.0,6.0,44,0.00,,---,0.00,VWS V14.01,2013-06-28 23:19:00,
2013-06-28 18:24:00,94.9,67.5,29.73,NE,50,1.0,2.0,41,0.00,,---,0.00,VWS V14.01,2013-06-28 23:24:00,
2013-06-28 18:29:00,95.4,68.0,29.73,NW,308,1.0,2.0,41,0.00,,---,0.00,VWS V14.01,2013-06-28 23:29:00,
2013-06-28 18:34:00,95.4,71.3,29.73,NW,308,0.0,1.0,46,0.00,,---,0.00,VWS V14.01,2013-06-28 23:34:00,
2013-06-28 18:39:00,95.1,71.1,29.73,North,9,1.0,3.0,46,0.00,,---,0.00,VWS V14.01,2013-06-28 23:39:00,
2013-06-28 18:44:00,94.9,72.2,29.73,North,9,0.0,1.0,48,0.00,,---,0.00,VWS V14.01,2013-06-28 23:44:00,
2013-06-28 18:49:00,94.7,72.0,29.73,North,3,1.0,2.0,48,0.00,,---,0.00,VWS V14.01,2013-06-28 23:49:00,
2013-06-28 18:54:00,94.7,70.7,29.73,North,3,0.0,2.0,46,0.00,,---,0.00,VWS V14.01,2013-06-28 23:54:00,
2013-06-28 18:59:00,94.7,69.4,29.73,WNW,296,2.0,2.0,44,0.00,,---,0.00,VWS V14.01,2013-06-28 23:59:00,
2013-06-28 19:04:00,94.9,69.6,29.73,WNW,300,0.0,2.0,44,0.00,,---,0.00,VWS V14.01,2013-06-29 00:04:00,
2013-06-28 19:09:00,94.9,70.9,29.73,North,359,0.0,2.0,46,0.00,,---,0.00,VWS V14.01,2013-06-29 00:09:00,
2013-06-28 19:14:00,94.7,70.7,29.73,North,359,0.0,1.0,46,0.00,,---,0.00,VWS V14.01,2013-06-29 00:14:00,
2013-06-28 19:19:00,94.7,70.1,29.73,North,359,0.0,1.0,45,0.00,,---,0.00,VWS V14.01,2013-06-29 00:19:00,
2013-06-28 19:24:00,94.9,70.2,29.73,North,359,0.0,0.0,45,0.00,,---,0.00,VWS V14.01,2013-06-29 00:24:00,
2013-06-28 19:29:00,94.9,70.2,29.73,North,359,0.0,0.0,45,0.00,,---,0.00,VWS V14.01,2013-06-29 00:29:00,
2013-06-28 19:34:00,94.3,71.6,29.73,North,359,0.0,0.0,48,0.00,,---,0.00,VWS V14.01,2013-06-29 00:34:00,
2013-06-28 19:39:00,93.4,70.8,29.73,North,359,0.0,0.0,48,0.00,,---,0.00,VWS V14.01,2013-06-29 00:39:00,
2013-06-28 19:44:00,91.4,76.1,29.73,North,359,0.0,1.0,61,0.00,,---,0.00,VWS V14.01,2013-06-29 00:44:00,
2013-06-28 19:49:00,90.5,75.7,29.73,North,359,0.0,1.0,62,0.00,,---,0.00,VWS V14.01,2013-06-29 00:49:00,
2013-06-28 19:55:00,89.7,75.9,29.74,North,359,0.0,0.0,64,0.00,,---,0.00,VWS V14.01,2013-06-29 00:55:00,
2013-06-28 20:00:00,89.0,75.2,29.74,North,359,0.0,0.0,64,0.00,,---,0.00,VWS V14.01,2013-06-29 01:00:00,
2013-06-28 20:05:00,88.4,75.1,29.74,North,359,0.0,0.0,65,0.00,,---,0.00,VWS V14.01,2013-06-29 01:05:00,
2013-06-28 20:10:00,87.4,74.2,29.74,North,359,0.0,0.0,65,0.00,,---,0.00,VWS V14.01,2013-06-29 01:10:00,
2013-06-28 20:15:00,86.7,73.5,29.74,North,359,0.0,0.0,65,0.00,,---,0.00,VWS V14.01,2013-06-29 01:15:00,
2013-06-28 20:20:00,85.3,72.2,29.74,North,359,0.0,0.0,65,0.00,,---,0.00,VWS V14.01,2013-06-29 01:20:00,
2013-06-28 20:25:00,84.7,73.8,29.74,North,359,0.0,0.0,70,0.00,,---,0.00,VWS V14.01,2013-06-29 01:25:00,
2013-06-28 20:30:00,84.1,73.7,29.74,North,359,0.0,0.0,71,0.00,,---,0.00,VWS V14.01,2013-06-29 01:30:00,
2013-06-28 20:35:00,83.2,73.7,29.74,North,358,0.0,0.0,73,0.00,,---,0.00,VWS V14.01,2013-06-29 01:35:00,
2013-06-28 20:40:00,82.4,74.1,29.74,North,358,0.0,1.0,76,0.00,,---,0.00,VWS V14.01,2013-06-29 01:40:00,
2013-06-28 20:45:00,81.6,73.3,29.74,North,359,0.0,0.0,76,0.00,,---,0.00,VWS V14.01,2013-06-29 01:45:00,
2013-06-28 20:50:00,81.1,73.6,29.74,North,358,0.0,0.0,78,0.00,,---,0.00,VWS V14.01,2013-06-29 01:50:00,
2013-06-28 20:55:00,80.5,73.4,29.74,North,358,0.0,0.0,79,0.00,,---,0.00,VWS V14.01,2013-06-29 01:55:00,
2013-06-28 21:00:00,79.9,72.8,29.74,North,358,0.0,0.0,79,0.00,,---,0.00,VWS V14.01,2013-06-29 02:00:00,
2013-06-28 21:05:00,79.6,72.5,29.74,North,358,0.0,0.0,79,0.00,,---,0.00,VWS V14.01,2013-06-29 02:05:00,
2013-06-28 21:10:00,79.4,73.1,29.74,North,359,0.0,0.0,81,0.00,,---,0.00,VWS V14.01,2013-06-29 02:10:00,
2013-06-28 21:15:00,79.2,72.9,29.74,North,359,0.0,0.0,81,0.00,,---,0.00,VWS V14.01,2013-06-29 02:15:00,
2013-06-28 21:20:00,78.5,72.9,29.74,North,358,0.0,0.0,83,0.00,,---,0.00,VWS V14.01,2013-06-29 02:20:00,
2013-06-28 21:25:00,78.1,72.5,29.74,North,359,0.0,0.0,83,0.00,,---,0.00,VWS V14.01,2013-06-29 02:25:00,
2013-06-28 21:30:00,77.7,72.1,29.74,North,359,0.0,0.0,83,0.00,,---,0.00,VWS V14.01,2013-06-29 02:30:00,
2013-06-28 21:35:00,77.4,72.2,29.74,North,359,0.0,0.0,84,0.00,,---,0.00,VWS V14.01,2013-06-29 02:35:00,
2013-06-28 21:40:00,77.2,72.0,29.74,North,359,0.0,0.0,84,0.00,,---,0.00,VWS V14.01,2013-06-29 02:40:00,
2013-06-28 21:45:00,76.8,71.6,29.74,North,359,0.0,0.0,84,0.00,,---,0.00,VWS V14.01,2013-06-29 02:45:00,
2013-06-28 21:50:00,76.7,71.5,29.74,North,358,0.0,0.0,84,0.00,,---,0.00,VWS V14.01,2013-06-29 02:50:00,
2013-06-28 21:55:00,76.7,71.5,29.74,North,359,0.0,0.0,84,0.00,,---,0.00,VWS V14.01,2013-06-29 02:55:00,
2013-06-28 22:00:00,76.1,71.3,29.75,North,359,0.0,0.0,85,0.00,,---,0.00,VWS V14.01,2013-06-29 03:00:00,
2013-06-28 22:05:00,76.1,71.3,29.75,North,359,0.0,0.0,85,0.00,,---,0.00,VWS V14.01,2013-06-29 03:05:00,
2013-06-28 22:10:00,75.8,71.0,29.75,North,358,0.0,0.0,85,0.00,,---,0.00,VWS V14.01,2013-06-29 03:10:00,
2013-06-28 22:15:00,75.4,70.6,29.75,North,359,0.0,0.0,85,0.00,,---,0.00,VWS V14.01,2013-06-29 03:15:00,
2013-06-28 22:20:00,75.1,70.3,29.75,North,359,0.0,0.0,85,0.00,,---,0.00,VWS V14.01,2013-06-29 03:20:00,
2013-06-28 22:25:00,75.1,70.3,29.75,North,359,0.0,0.0,85,0.00,,---,0.00,VWS V14.01,2013-06-29 03:25:00,
2013-06-28 22:30:00,74.7,69.9,29.75,North,359,0.0,0.0,85,0.00,,---,0.00,VWS V14.01,2013-06-29 03:30:00,
2013-06-28 22:35:00,74.7,69.9,29.75,North,359,0.0,0.0,85,0.00,,---,0.00,VWS V14.01,2013-06-29 03:35:00,
2013-06-28 22:40:00,74.6,70.1,29.75,North,359,0.0,0.0,86,0.00,,---,0.00,VWS V14.01,2013-06-29 03:40:00,
2013-06-28 22:45:00,74.0,69.6,29.75,North,359,0.0,0.0,86,0.00,,---,0.00,VWS V14.01,2013-06-29 03:45:00,
2013-06-28 22:50:00,73.9,69.4,29.75,North,358,0.0,0.0,86,0.00,,---,0.00,VWS V14.01,2013-06-29 03:50:00,
2013-06-28 22:55:00,73.7,69.3,29.75,North,359,0.0,0.0,86,0.00,,---,0.00,VWS V14.01,2013-06-29 03:55:00,
2013-06-28 23:00:00,73.5,69.1,29.76,North,359,0.0,0.0,86,0.00,,---,0.00,VWS V14.01,2013-06-29 04:00:00,
2013-06-28 23:01:00,73.5,69.1,29.75,North,359,0.0,0.0,86,0.00,,---,0.00,VWS V14.01,2013-06-29 04:01:00,
2013-06-28 23:06:00,73.3,68.9,29.76,North,358,0.0,0.0,86,0.00,,---,0.00,VWS V14.01,2013-06-29 04:06:00,
2013-06-28 23:11:00,73.2,68.8,29.76,North,359,0.0,0.0,86,0.00,,---,0.00,VWS V14.01,2013-06-29 04:11:00,
2013-06-28 23:16:00,73.2,68.8,29.76,North,358,0.0,0.0,86,0.00,,---,0.00,VWS V14.01,2013-06-29 04:16:00,
2013-06-28 23:21:00,73.0,68.6,29.76,North,359,0.0,0.0,86,0.00,,---,0.00,VWS V14.01,2013-06-29 04:21:00,
2013-06-28 23:26:00,73.0,68.9,29.76,North,359,0.0,0.0,87,0.00,,---,0.00,VWS V14.01,2013-06-29 04:26:00,
2013-06-28 23:31:00,72.8,68.7,29.76,North,358,0.0,0.0,87,0.00,,---,0.00,VWS V14.01,2013-06-29 04:31:00,
2013-06-28 23:36:00,72.7,68.6,29.76,North,359,0.0,0.0,87,0.00,,---,0.00,VWS V14.01,2013-06-29 04:36:00,
2013-06-28 23:41:00,72.7,68.6,29.76,North,359,0.0,0.0,87,0.00,,---,0.00,VWS V14.01,2013-06-29 04:41:00,
2013-06-28 23:46:00,72.5,68.4,29.76,North,359,0.0,0.0,87,0.00,,---,0.00,VWS V14.01,2013-06-29 04:46:00,
2013-06-28 23:51:00,72.3,67.9,29.76,North,359,0.0,0.0,86,0.00,,---,0.00,VWS V14.01,2013-06-29 04:51:00,
2013-06-28 23:56:00,72.3,68.2,29.76,North,359,0.0,0.0,87,0.00,,---,0.00,VWS V14.01,2013-06-29 04:56:00,